Time,TemperatureF,DewpointF,PressureIn,WindDirection,WindDirectionDegrees,WindSpeedMPH,WindSpeedGustMPH,Humidity,HourlyPrecipIn,Conditions,Clouds,dailyrainin,SoftwareType,DateUTC
2013-07-22 00:03:00,65.7,62.7,29.90,SSE,152,0.0,0.0,90,-99.99,,,0.00,1-wire,2013-07-22 05:03:00,
2013-07-22 00:08:00,66.2,63.1,29.90,South,181,0.0,0.0,90,-99.99,,,0.00,1-wire,2013-07-22 05:08:00,
2013-07-22 00:13:00,65.8,62.6,29.90,South,181,0.0,0.0,90,-99.99,,,0.00,1-wire,2013-07-22 05:13:00,
2013-07-22 00:18:00,66.0,62.8,29.90,South,181,0.0,0.0,90,-99.99,,,0.00,1-wire,2013-07-22 05:18:00,
2013-07-22 00:23:00,65.9,62.9,29.90,South,185,0.0,0.0,90,-99.99,,,0.00,1-wire,2013-07-22 05:23:00,
2013-07-22 00:28:00,65.9,62.8,29.90,South,185,1.0,3.0,90,-99.99,,,0.00,1-wire,2013-07-22 05:28:00,
2013-07-22 00:33:00,65.8,62.6,29.90,South,185,0.0,3.0,90,-99.99,,,0.00,1-wire,2013-07-22 05:33:00,
2013-07-22 00:38:00,66.1,62.9,29.89,South,179,0.0,0.0,90,-99.99,,,0.00,1-wire,2013-07-22 05:38:00,
2013-07-22 00:43:00,66.1,62.9,29.89,South,179,0.0,0.0,90,-99.99,,,0.00,1-wire,2013-07-22 05:43:00,
2013-07-22 00:48:00,66.0,62.7,29.89,South,179,0.0,0.0,89,-99.99,,,0.00,1-wire,2013-07-22 05:48:00,
2013-07-22 00:53:00,66.1,62.8,29.89,South,183,0.0,3.0,89,-99.99,,,0.00,1-wire,2013-07-22 05:53:00,
2013-07-22 00:59:00,66.3,63.0,29.89,South,183,0.0,0.0,89,-99.99,,,0.00,1-wire,2013-07-22 05:59:00,
2013-07-22 01:05:00,66.2,62.9,29.89,South,183,0.0,0.0,89,-99.99,,,0.00,1-wire,2013-07-22 06:05:00,
2013-07-22 01:11:00,66.4,63.2,29.89,South,186,0.0,0.0,89,-99.99,,,0.00,1-wire,2013-07-22 06:11:00,
2013-07-22 01:17:00,66.3,62.9,29.88,South,186,0.0,0.0,89,-99.99,,,0.00,1-wire,2013-07-22 06:17:00,
2013-07-22 01:23:00,66.3,62.9,29.88,South,184,0.0,0.0,89,-99.99,,,0.00,1-wire,2013-07-22 06:23:00,
2013-07-22 01:29:00,66.3,63.0,29.88,South,184,0.0,0.0,89,-99.99,,,0.00,1-wire,2013-07-22 06:29:00,
2013-07-22 01:35:00,66.4,63.1,29.88,South,184,0.0,0.0,89,-99.99,,,0.00,1-wire,2013-07-22 06:35:00,
2013-07-22 01:41:00,66.2,62.8,29.88,South,184,0.0,0.0,89,-99.99,,,0.00,1-wire,2013-07-22 06:41:00,
2013-07-22 01:47:00,66.3,63.0,29.86,South,184,0.0,0.0,89,-99.99,,,0.00,1-wire,2013-07-22 06:47:00,
2013-07-22 01:52:00,66.5,63.1,29.86,South,179,0.0,0.0,89,-99.99,,,0.00,1-wire,2013-07-22 06:52:00,
2013-07-22 01:57:00,66.3,63.2,29.86,South,179,0.0,0.0,90,-99.99,,,0.00,1-wire,2013-07-22 06:57:00,
2013-07-22 02:02:00,66.5,63.4,29.86,South,179,0.0,0.0,89,-99.99,,,0.00,1-wire,2013-07-22 07:02:00,
2013-07-22 02:07:00,66.5,63.3,29.86,South,185,0.0,0.0,89,-99.99,,,0.00,1-wire,2013-07-22 07:07:00,
2013-07-22 02:12:00,66.6,63.2,29.86,South,185,0.0,0.0,89,-99.99,,,0.00,1-wire,2013-07-22 07:12:00,
2013-07-22 02:18:00,66.5,63.3,29.86,South,185,0.0,0.0,89,-99.99,,,0.00,1-wire,2013-07-22 07:18:00,
2013-07-22 02:23:00,65.9,62.7,29.86,NNW,348,0.0,0.0,90,-99.99,,,0.00,1-wire,2013-07-22 07:23:00,
2013-07-22 02:28:00,65.7,62.5,29.86,NNW,348,0.0,0.0,90,-99.99,,,0.00,1-wire,2013-07-22 07:28:00,
2013-07-22 02:33:00,65.8,62.9,29.86,NNW,348,0.0,0.0,90,-99.99,,,0.00,1-wire,2013-07-22 07:33:00,
2013-07-22 02:38:00,65.6,62.7,29.86,NNW,343,0.0,0.0,90,-99.99,,,0.00,1-wire,2013-07-22 07:38:00,
2013-07-22 02:44:00,65.9,62.9,29.86,NNW,343,0.0,0.0,90,-99.99,,,0.00,1-wire,2013-07-22 07:44:00,
2013-07-22 02:50:00,65.3,62.5,29.86,NNW,343,0.0,0.0,91,-99.99,,,0.00,1-wire,2013-07-22 07:50:00,
2013-07-22 02:55:00,65.7,62.9,29.86,NNW,333,0.0,0.0,91,-99.99,,,0.00,1-wire,2013-07-22 07:55:00,
2013-07-22 03:00:00,65.4,62.9,29.86,NNW,333,0.0,0.0,92,-99.99,,,0.00,1-wire,2013-07-22 08:00:00,
2013-07-22 03:05:00,65.3,62.6,29.86,NNW,333,0.0,0.0,91,-99.99,,,0.00,1-wire,2013-07-22 08:05:00,
2013-07-22 03:10:00,65.6,62.9,29.86,NNW,341,0.0,0.0,91,-99.99,,,0.00,1-wire,2013-07-22 08:10:00,
2013-07-22 03:15:00,65.6,62.9,29.86,NNW,341,0.0,0.0,91,-99.99,,,0.00,1-wire,2013-07-22 08:15:00,
2013-07-22 03:20:00,65.6,62.8,29.86,NNW,341,0.0,0.0,91,-99.99,,,0.00,1-wire,2013-07-22 08:20:00,
2013-07-22 03:25:00,65.4,62.7,29.86,NNW,347,0.0,0.0,91,-99.99,,,0.00,1-wire,2013-07-22 08:25:00,
2013-07-22 03:30:00,65.4,62.6,29.86,NNW,347,0.0,0.0,90,-99.99,,,0.00,1-wire,2013-07-22 08:30:00,
2013-07-22 03:35:00,65.3,62.4,29.86,NNW,347,0.0,0.0,91,-99.99,,,0.00,1-wire,2013-07-22 08:35:00,
2013-07-22 03:40:00,65.4,62.6,29.87,NNW,347,0.0,0.0,91,-99.99,,,0.00,1-wire,2013-07-22 08:40:00,
2013-07-22 03:45:00,65.1,62.2,29.87,NNW,347,0.0,0.0,90,-99.99,,,0.00,1-wire,2013-07-22 08:45:00,
2013-07-22 03:50:00,65.0,62.1,29.87,NNW,347,0.0,0.0,91,-99.99,,,0.00,1-wire,2013-07-22 08:50:00,
2013-07-22 03:55:00,64.7,61.9,29.87,North,359,0.0,0.0,91,-99.99,,,0.00,1-wire,2013-07-22 08:55:00,
2013-07-22 04:00:00,64.5,61.9,29.87,North,359,0.0,0.0,91,-99.99,,,0.00,1-wire,2013-07-22 09:00:00,
2013-07-22 04:05:00,64.7,62.1,29.87,North,359,0.0,0.0,91,-99.99,,,0.00,1-wire,2013-07-22 09:05:00,
2013-07-22 04:10:00,64.4,61.8,29.86,North,359,0.0,0.0,91,-99.99,,,0.00,1-wire,2013-07-22 09:10:00,
2013-07-22 04:15:00,64.6,62.0,29.86,North,359,0.0,0.0,91,-99.99,,,0.00,1-wire,2013-07-22 09:15:00,
2013-07-22 04:20:00,64.8,62.3,29.86,North,359,0.0,0.0,92,-99.99,,,0.00,1-wire,2013-07-22 09:20:00,
2013-07-22 04:25:00,64.7,62.2,29.87,NNE,30,0.0,0.0,92,-99.99,,,0.00,1-wire,2013-07-22 09:25:00,
2013-07-22 04:30:00,64.2,61.6,29.87,NNE,30,0.0,0.0,91,-99.99,,,0.00,1-wire,2013-07-22 09:30:00,
2013-07-22 04:36:00,64.3,61.7,29.87,North,357,0.0,0.0,91,-99.99,,,0.00,1-wire,2013-07-22 09:36:00,
2013-07-22 04:41:00,64.1,61.6,29.87,North,357,0.0,0.0,91,-99.99,,,0.00,1-wire,2013-07-22 09:41:00,
2013-07-22 04:46:00,64.5,61.8,29.87,North,357,0.0,0.0,91,-99.99,,,0.00,1-wire,2013-07-22 09:46:00,
2013-07-22 04:51:00,64.0,61.4,29.87,NNE,30,0.0,0.0,91,-99.99,,,0.00,1-wire,2013-07-22 09:51:00,
2013-07-22 04:56:00,64.0,61.5,29.86,NNE,30,0.0,0.0,92,-99.99,,,0.00,1-wire,2013-07-22 09:56:00,
2013-07-22 05:01:00,63.9,61.4,29.86,NNE,30,0.0,0.0,91,-99.99,,,0.00,1-wire,2013-07-22 10:01:00,
2013-07-22 05:06:00,64.0,61.6,29.86,NNE,30,0.0,0.0,92,-99.99,,,0.00,1-wire,2013-07-22 10:06:00,
2013-07-22 05:11:00,64.4,62.1,29.86,NNE,30,0.0,0.0,92,-99.99,,,0.00,1-wire,2013-07-22 10:11:00,
2013-07-22 05:16:00,64.3,62.0,29.86,NNE,30,0.0,0.0,92,-99.99,,,0.00,1-wire,2013-07-22 10:16:00,
2013-07-22 05:21:00,64.2,61.8,29.86,ENE,70,0.0,0.0,92,-99.99,,,0.00,1-wire,2013-07-22 10:21:00,
2013-07-22 05:26:00,64.3,61.9,29.86,ENE,70,0.0,0.0,92,-99.99,,,0.00,1-wire,2013-07-22 10:26:00,
2013-07-22 05:31:00,64.2,61.8,29.85,ENE,70,0.0,0.0,92,-99.99,,,0.00,1-wire,2013-07-22 10:31:00,
2013-07-22 05:37:00,64.2,61.9,29.85,ENE,71,0.0,0.0,92,-99.99,,,0.00,1-wire,2013-07-22 10:37:00,
2013-07-22 05:43:00,63.8,61.8,29.85,ENE,71,0.0,3.0,93,-99.99,,,0.00,1-wire,2013-07-22 10:43:00,
2013-07-22 05:49:00,64.4,62.5,29.85,ENE,71,0.0,0.0,94,-99.99,,,0.00,1-wire,2013-07-22 10:49:00,
2013-07-22 05:54:00,64.2,62.4,29.85,ENE,75,1.0,3.0,94,-99.99,,,0.00,1-wire,2013-07-22 10:54:00,
2013-07-22 05:59:00,64.4,62.8,29.85,ENE,75,0.0,3.0,95,-99.99,,,0.00,1-wire,2013-07-22 10:59:00,
2013-07-22 06:04:00,64.9,63.2,29.85,ENE,75,0.0,0.0,94,-99.99,,,0.00,1-wire,2013-07-22 11:04:00,
2013-07-22 06:10:00,64.8,63.1,29.85,ESE,120,0.0,0.0,94,-99.99,,,0.00,1-wire,2013-07-22 11:10:00,
2013-07-22 06:16:00,65.0,63.4,29.85,ESE,120,0.0,3.0,95,-99.99,,,0.00,1-wire,2013-07-22 11:16:00,
2013-07-22 06:22:00,64.9,63.2,29.85,SE,142,0.0,0.0,94,-99.99,,,0.00,1-wire,2013-07-22 11:22:00,
2013-07-22 06:27:00,65.1,63.4,29.85,SE,142,0.0,0.0,94,-99.99,,,0.00,1-wire,2013-07-22 11:27:00,
2013-07-22 06:32:00,65.0,63.4,29.85,SE,142,0.0,0.0,94,-99.99,,,0.00,1-wire,2013-07-22 11:32:00,
2013-07-22 06:37:00,64.8,63.2,29.85,SSE,152,0.0,3.0,94,-99.99,,,0.00,1-wire,2013-07-22 11:37:00,
2013-07-22 06:43:00,64.9,63.4,29.86,SSE,152,0.0,0.0,95,-99.99,,,0.00,1-wire,2013-07-22 11:43:00,
2013-07-22 06:49:00,64.7,63.3,29.85,SSE,152,0.0,3.0,95,-99.99,,,0.00,1-wire,2013-07-22 11:49:00,
2013-07-22 06:54:00,65.2,63.8,29.86,SSE,149,0.0,0.0,95,-99.99,,,0.00,1-wire,2013-07-22 11:54:00,
2013-07-22 06:59:00,65.1,63.6,29.86,SSE,149,0.0,0.0,95,-99.99,,,0.00,1-wire,2013-07-22 11:59:00,
2013-07-22 07:04:00,65.2,63.5,29.86,SSE,149,0.0,3.0,94,-99.99,,,0.00,1-wire,2013-07-22 12:04:00,
2013-07-22 07:09:00,65.5,63.7,29.86,SSE,149,0.0,0.0,94,-99.99,,,0.00,1-wire,2013-07-22 12:09:00,
2013-07-22 07:14:00,65.5,63.8,29.86,SSE,149,0.0,3.0,94,-99.99,,,0.00,1-wire,2013-07-22 12:14:00,
2013-07-22 07:19:00,65.5,63.6,29.85,SSE,149,0.0,0.0,94,-99.99,,,0.00,1-wire,2013-07-22 12:19:00,
2013-07-22 07:24:00,65.4,63.6,29.86,ESE,122,0.0,0.0,94,-99.99,,,0.00,1-wire,2013-07-22 12:24:00,
2013-07-22 07:29:00,65.9,64.0,29.86,ESE,122,0.0,0.0,94,-99.99,,,0.00,1-wire,2013-07-22 12:29:00,
2013-07-22 07:34:00,66.0,63.9,29.86,ESE,122,0.0,0.0,93,-99.99,,,0.00,1-wire,2013-07-22 12:34:00,
2013-07-22 07:39:00,66.3,64.2,29.85,SE,146,0.0,0.0,93,-99.99,,,0.00,1-wire,2013-07-22 12:39:00,
2013-07-22 07:44:00,66.4,64.2,29.85,SE,146,1.0,3.0,93,-99.99,,,0.00,1-wire,2013-07-22 12:44:00,
2013-07-22 07:49:00,66.7,64.3,29.85,SE,146,0.0,0.0,92,-99.99,,,0.00,1-wire,2013-07-22 12:49:00,
2013-07-22 07:54:00,66.7,64.1,29.86,SSE,154,0.0,0.0,91,-99.99,,,0.00,1-wire,2013-07-22 12:54:00,
2013-07-22 07:59:00,67.3,64.7,29.85,SSE,154,0.0,0.0,92,-99.99,,,0.00,1-wire,2013-07-22 12:59:00,
2013-07-22 08:04:00,67.0,64.0,29.85,SSE,154,1.0,6.0,90,-99.99,,,0.00,1-wire,2013-07-22 13:04:00,
2013-07-22 08:09:00,67.1,64.1,29.85,SSE,163,0.0,3.0,90,-99.99,,,0.00,1-wire,2013-07-22 13:09:00,
2013-07-22 08:14:00,67.4,64.4,29.85,SSE,163,2.0,3.0,90,-99.99,,,0.00,1-wire,2013-07-22 13:14:00,
2013-07-22 08:19:00,67.7,64.6,29.86,SSE,163,1.0,6.0,90,-99.99,,,0.00,1-wire,2013-07-22 13:19:00,
2013-07-22 08:24:00,67.8,64.7,29.86,SSE,165,1.0,6.0,90,-99.99,,,0.00,1-wire,2013-07-22 13:24:00,
2013-07-22 08:29:00,67.2,64.0,29.86,SSE,165,1.0,3.0,89,-99.99,,,0.00,1-wire,2013-07-22 13:29:00,
2013-07-22 08:34:00,67.7,64.6,29.86,SSE,165,0.0,0.0,90,-99.99,,,0.00,1-wire,2013-07-22 13:34:00,
2013-07-22 08:39:00,68.2,65.0,29.86,South,172,0.0,3.0,90,-99.99,,,0.00,1-wire,2013-07-22 13:39:00,
2013-07-22 08:44:00,68.4,65.1,29.86,South,172,2.0,3.0,89,-99.99,,,0.00,1-wire,2013-07-22 13:44:00,
2013-07-22 08:49:00,68.8,65.1,29.86,South,172,0.0,3.0,88,-99.99,,,0.00,1-wire,2013-07-22 13:49:00,
2013-07-22 08:54:00,69.2,65.3,29.86,South,173,0.0,3.0,87,-99.99,,,0.00,1-wire,2013-07-22 13:54:00,
2013-07-22 08:59:00,69.6,65.5,29.86,South,173,1.0,6.0,87,-99.99,,,0.00,1-wire,2013-07-22 13:59:00,
2013-07-22 09:04:00,70.0,65.3,29.85,South,173,2.0,6.0,85,-99.99,,,0.00,1-wire,2013-07-22 14:04:00,
2013-07-22 09:09:00,70.7,66.1,29.85,South,190,0.0,0.0,85,-99.99,,,0.00,1-wire,2013-07-22 14:09:00,
2013-07-22 09:15:00,71.6,66.6,29.85,South,190,1.0,3.0,84,-99.99,,,0.00,1-wire,2013-07-22 14:15:00,
2013-07-22 09:20:00,71.5,65.6,29.84,South,190,3.0,8.0,82,-99.99,,,0.00,1-wire,2013-07-22 14:20:00,
2013-07-22 09:25:00,71.8,65.4,29.84,SW,232,4.0,8.0,80,-99.99,,,0.00,1-wire,2013-07-22 14:25:00,
2013-07-22 09:31:00,72.7,66.4,29.84,SW,232,0.0,3.0,81,-99.99,,,0.00,1-wire,2013-07-22 14:31:00,
2013-07-22 09:36:00,72.8,66.1,29.84,SW,232,1.0,3.0,79,-99.99,,,0.00,1-wire,2013-07-22 14:36:00,
2013-07-22 09:41:00,72.9,65.6,29.84,SW,232,2.0,6.0,78,-99.99,,,0.00,1-wire,2013-07-22 14:41:00,
2013-07-22 09:47:00,73.5,66.2,29.83,SW,232,3.0,6.0,78,-99.99,,,0.00,1-wire,2013-07-22 14:47:00,
2013-07-22 09:52:00,74.0,66.3,29.84,SW,232,1.0,3.0,77,-99.99,,,0.00,1-wire,2013-07-22 14:52:00,
2013-07-22 09:57:00,75.0,67.4,29.84,SW,232,2.0,6.0,77,-99.99,,,0.00,1-wire,2013-07-22 14:57:00,
2013-07-22 10:02:00,75.1,67.0,29.84,SW,232,1.0,3.0,76,-99.99,,,0.00,1-wire,2013-07-22 15:02:00,
2013-07-22 10:07:00,75.9,67.2,29.84,SW,230,0.0,3.0,74,-99.99,,,0.00,1-wire,2013-07-22 15:07:00,
2013-07-22 10:12:00,75.3,66.4,29.83,SW,230,3.0,6.0,74,-99.99,,,0.00,1-wire,2013-07-22 15:12:00,
2013-07-22 10:17:00,75.6,67.0,29.83,SW,230,0.0,3.0,75,-99.99,,,0.00,1-wire,2013-07-22 15:17:00,
2013-07-22 10:22:00,75.7,66.8,29.84,SW,218,1.0,3.0,74,-99.99,,,0.00,1-wire,2013-07-22 15:22:00,
2013-07-22 10:27:00,76.6,68.2,29.83,SW,218,0.0,3.0,75,-99.99,,,0.00,1-wire,2013-07-22 15:27:00,
2013-07-22 10:33:00,76.8,67.1,29.84,SW,218,0.0,3.0,72,-99.99,,,0.00,1-wire,2013-07-22 15:33:00,
2013-07-22 10:38:00,77.3,68.6,29.84,SW,235,1.0,3.0,75,-99.99,,,0.00,1-wire,2013-07-22 15:38:00,
2013-07-22 10:43:00,77.5,68.2,29.84,SW,235,0.0,0.0,73,-99.99,,,0.00,1-wire,2013-07-22 15:43:00,
2013-07-22 10:48:00,77.7,68.1,29.84,SW,235,1.0,3.0,73,-99.99,,,0.00,1-wire,2013-07-22 15:48:00,
2013-07-22 10:53:00,78.3,67.9,29.84,SW,234,3.0,6.0,70,-99.99,,,0.00,1-wire,2013-07-22 15:53:00,
2013-07-22 10:58:00,77.9,67.9,29.84,SW,234,3.0,6.0,71,-99.99,,,0.00,1-wire,2013-07-22 15:58:00,
2013-07-22 11:03:00,77.7,67.9,29.84,SW,234,2.0,6.0,72,-99.99,,,0.00,1-wire,2013-07-22 16:03:00,
2013-07-22 11:08:00,78.1,67.6,29.84,WSW,246,1.0,3.0,70,-99.99,,,0.00,1-wire,2013-07-22 16:08:00,
2013-07-22 11:13:00,78.7,67.8,29.84,WSW,246,3.0,8.0,69,-99.99,,,0.00,1-wire,2013-07-22 16:13:00,
2013-07-22 11:18:00,79.4,69.1,29.84,WSW,246,3.0,6.0,71,-99.99,,,0.00,1-wire,2013-07-22 16:18:00,
2013-07-22 11:23:00,79.6,68.6,29.84,SSW,198,0.0,3.0,69,-99.99,,,0.00,1-wire,2013-07-22 16:23:00,
2013-07-22 11:28:00,80.0,68.0,29.84,SSW,198,1.0,3.0,67,-99.99,,,0.00,1-wire,2013-07-22 16:28:00,
2013-07-22 11:33:00,79.4,67.6,29.84,SSW,198,3.0,8.0,67,-99.99,,,0.00,1-wire,2013-07-22 16:33:00,
2013-07-22 11:38:00,79.9,68.3,29.84,SSW,202,1.0,3.0,68,-99.99,,,0.00,1-wire,2013-07-22 16:38:00,
2013-07-22 11:44:00,80.5,68.9,29.84,SSW,202,0.0,3.0,68,-99.99,,,0.00,1-wire,2013-07-22 16:44:00,
2013-07-22 11:49:00,80.7,68.2,29.84,SSW,202,2.0,6.0,66,-99.99,,,0.00,1-wire,2013-07-22 16:49:00,
2013-07-22 11:54:00,80.4,67.5,29.84,SSW,201,1.0,3.0,65,-99.99,,,0.00,1-wire,2013-07-22 16:54:00,
2013-07-22 12:00:00,81.0,68.4,29.84,SSW,201,1.0,3.0,66,-99.99,,,0.00,1-wire,2013-07-22 17:00:00,
2013-07-22 12:06:00,81.6,67.9,29.84,SSW,192,2.0,6.0,63,-99.99,,,0.00,1-wire,2013-07-22 17:06:00,
2013-07-22 12:11:00,80.8,66.4,29.84,SSW,192,1.0,3.0,62,-99.99,,,0.00,1-wire,2013-07-22 17:11:00,
2013-07-22 12:16:00,81.2,67.7,29.84,SSW,192,2.0,6.0,64,-99.99,,,0.00,1-wire,2013-07-22 17:16:00,
2013-07-22 12:22:00,81.7,68.0,29.83,SSW,209,3.0,9.0,63,-99.99,,,0.00,1-wire,2013-07-22 17:22:00,
2013-07-22 12:27:00,81.6,66.7,29.83,SSW,209,3.0,9.0,61,-99.99,,,0.00,1-wire,2013-07-22 17:27:00,
2013-07-22 12:32:00,82.0,68.2,29.83,SSW,209,1.0,3.0,63,-99.99,,,0.00,1-wire,2013-07-22 17:32:00,
2013-07-22 12:38:00,82.0,67.3,29.83,SSW,210,0.0,3.0,61,-99.99,,,0.00,1-wire,2013-07-22 17:38:00,
2013-07-22 12:43:00,83.4,68.8,29.82,SSW,210,0.0,3.0,62,-99.99,,,0.00,1-wire,2013-07-22 17:43:00,
2013-07-22 12:48:00,83.4,67.8,29.82,SSW,210,0.0,3.0,59,-99.99,,,0.00,1-wire,2013-07-22 17:48:00,
2013-07-22 12:53:00,83.1,66.5,29.82,SSW,211,4.0,11.0,57,-99.99,,,0.00,1-wire,2013-07-22 17:53:00,
2013-07-22 12:59:00,83.9,67.8,29.82,SSW,211,2.0,6.0,58,-99.99,,,0.00,1-wire,2013-07-22 17:59:00,
2013-07-22 13:04:00,82.4,66.3,29.81,SSW,211,3.0,6.0,58,-99.99,,,0.00,1-wire,2013-07-22 18:04:00,
2013-07-22 13:09:00,83.3,67.8,29.81,SW,230,2.0,3.0,60,-99.99,,,0.00,1-wire,2013-07-22 18:09:00,
2013-07-22 13:15:00,83.9,69.2,29.81,SW,230,1.0,3.0,62,-99.99,,,0.00,1-wire,2013-07-22 18:15:00,
2013-07-22 13:20:00,83.9,67.9,29.79,SW,230,2.0,6.0,59,-99.99,,,0.00,1-wire,2013-07-22 18:20:00,
2013-07-22 13:25:00,84.3,68.3,29.79,SW,232,0.0,3.0,59,-99.99,,,0.00,1-wire,2013-07-22 18:25:00,
2013-07-22 13:30:00,84.3,68.5,29.79,SW,232,3.0,6.0,59,-99.99,,,0.00,1-wire,2013-07-22 18:30:00,
2013-07-22 13:35:00,84.5,67.9,29.79,SW,232,2.0,6.0,58,-99.99,,,0.00,1-wire,2013-07-22 18:35:00,
2013-07-22 13:40:00,84.0,66.8,29.79,SW,226,1.0,6.0,56,-99.99,,,0.00,1-wire,2013-07-22 18:40:00,
2013-07-22 13:45:00,84.1,67.6,29.78,SW,226,1.0,3.0,58,-99.99,,,0.00,1-wire,2013-07-22 18:45:00,
2013-07-22 13:50:00,84.0,67.9,29.79,SW,226,1.0,3.0,59,-99.99,,,0.00,1-wire,2013-07-22 18:50:00,
2013-07-22 13:55:00,84.8,68.4,29.78,SW,223,1.0,6.0,58,-99.99,,,0.00,1-wire,2013-07-22 18:55:00,
2013-07-22 14:00:00,84.2,67.8,29.78,SW,223,2.0,6.0,58,-99.99,,,0.00,1-wire,2013-07-22 19:00:00,
2013-07-22 14:05:00,84.4,68.0,29.78,SW,223,3.0,8.0,58,-99.99,,,0.00,1-wire,2013-07-22 19:05:00,
2013-07-22 14:10:00,84.7,68.6,29.78,South,178,1.0,3.0,59,-99.99,,,0.00,1-wire,2013-07-22 19:10:00,
2013-07-22 14:18:00,84.6,68.0,29.78,South,178,3.0,7.0,58,-99.99,,,0.00,1-wire,2013-07-22 19:18:00,
2013-07-22 14:23:00,83.7,66.8,29.78,SSW,197,1.0,6.0,57,-99.99,,,0.00,1-wire,2013-07-22 19:23:00,
2013-07-22 14:28:00,83.2,67.3,29.77,SSW,197,1.0,6.0,59,-99.99,,,0.00,1-wire,2013-07-22 19:28:00,
2013-07-22 14:33:00,84.0,68.5,29.77,SSW,197,1.0,6.0,60,-99.99,,,0.00,1-wire,2013-07-22 19:33:00,
2013-07-22 14:38:00,83.5,67.1,29.77,SSW,192,1.0,3.0,58,-99.99,,,0.00,1-wire,2013-07-22 19:38:00,
2013-07-22 14:43:00,83.9,68.4,29.77,SSW,192,0.0,3.0,60,-99.99,,,0.00,1-wire,2013-07-22 19:43:00,
2013-07-22 14:48:00,83.5,67.2,29.77,SSW,192,2.0,6.0,58,-99.99,,,0.00,1-wire,2013-07-22 19:48:00,
2013-07-22 14:53:00,84.2,68.6,29.77,South,187,2.0,6.0,60,-99.99,,,0.00,1-wire,2013-07-22 19:53:00,
2013-07-22 14:59:00,84.3,68.2,29.77,South,187,2.0,6.0,59,-99.99,,,0.00,1-wire,2013-07-22 19:59:00,
2013-07-22 15:04:00,84.4,68.6,29.77,South,187,3.0,6.0,59,-99.99,,,0.00,1-wire,2013-07-22 20:04:00,
2013-07-22 15:10:00,84.1,68.2,29.76,SSW,192,2.0,4.0,59,-99.99,,,0.00,1-wire,2013-07-22 20:10:00,
2013-07-22 15:15:00,84.2,68.5,29.76,SSW,192,2.0,6.0,59,-99.99,,,0.00,1-wire,2013-07-22 20:15:00,
2013-07-22 15:17:00,84.3,68.3,29.76,SSW,192,3.0,6.0,59,-99.99,,,0.00,1-wire,2013-07-22 20:17:00,
2013-07-22 15:18:00,84.3,67.9,29.76,SSW,192,4.0,9.0,58,-99.99,,,0.00,1-wire,2013-07-22 20:18:00,
2013-07-22 15:20:00,84.9,69.0,29.76,SSW,192,2.0,6.0,59,-99.99,,,0.00,1-wire,2013-07-22 20:20:00,
2013-07-22 15:24:00,84.5,68.4,29.76,SSW,197,0.0,3.0,59,-99.99,,,0.00,1-wire,2013-07-22 20:24:00,
2013-07-22 15:26:00,84.8,68.5,29.76,SSW,197,3.0,6.0,58,-99.99,,,0.00,1-wire,2013-07-22 20:26:00,
2013-07-22 15:32:00,84.8,68.2,29.75,SSW,197,5.0,17.0,58,-99.99,,,0.00,1-wire,2013-07-22 20:32:00,
2013-07-22 15:38:00,84.5,68.1,29.76,SSW,196,2.0,6.0,58,-99.99,,,0.00,1-wire,2013-07-22 20:38:00,
2013-07-22 15:44:00,84.3,67.4,29.75,SSW,196,1.0,3.0,57,-99.99,,,0.00,1-wire,2013-07-22 20:44:00,
2013-07-22 15:49:00,84.7,68.2,29.76,SSW,196,1.0,6.0,58,-99.99,,,0.00,1-wire,2013-07-22 20:49:00,
2013-07-22 15:54:00,85.0,68.5,29.76,SSW,192,2.0,6.0,58,-99.99,,,0.00,1-wire,2013-07-22 20:54:00,
2013-07-22 15:59:00,84.8,68.3,29.77,SSW,192,3.0,6.0,58,-99.99,,,0.00,1-wire,2013-07-22 20:59:00,
2013-07-22 16:05:00,85.1,68.5,29.76,SSW,192,2.0,6.0,58,-99.99,,,0.00,1-wire,2013-07-22 21:05:00,
2013-07-22 16:10:00,85.0,68.1,29.76,SSW,199,2.0,6.0,57,-99.99,,,0.00,1-wire,2013-07-22 21:10:00,
2013-07-22 16:15:00,84.9,67.9,29.75,SSW,199,2.0,6.0,57,-99.99,,,0.00,1-wire,2013-07-22 21:15:00,
2013-07-22 16:20:00,84.5,68.5,29.75,SSW,199,1.0,3.0,59,-99.99,,,0.00,1-wire,2013-07-22 21:20:00,
2013-07-22 16:25:00,84.8,68.5,29.75,SSW,207,1.0,3.0,58,-99.99,,,0.00,1-wire,2013-07-22 21:25:00,
2013-07-22 16:30:00,84.6,68.0,29.75,SSW,207,2.0,6.0,58,-99.99,,,0.00,1-wire,2013-07-22 21:30:00,
2013-07-22 16:35:00,85.1,68.2,29.75,SSW,207,3.0,6.0,57,-99.99,,,0.00,1-wire,2013-07-22 21:35:00,
2013-07-22 16:40:00,85.0,68.6,29.75,SSW,208,1.0,8.0,58,-99.99,,,0.00,1-wire,2013-07-22 21:40:00,
2013-07-22 16:45:00,84.6,67.9,29.74,SSW,208,3.0,6.0,57,-99.99,,,0.00,1-wire,2013-07-22 21:45:00,
2013-07-22 16:50:00,85.3,69.0,29.74,SSW,208,4.0,9.0,58,-99.99,,,0.00,1-wire,2013-07-22 21:50:00,
2013-07-22 16:55:00,85.0,68.4,29.74,SSW,202,3.0,6.0,58,-99.99,,,0.00,1-wire,2013-07-22 21:55:00,
2013-07-22 17:00:00,85.7,69.2,29.74,SSW,202,0.0,3.0,58,-99.99,,,0.00,1-wire,2013-07-22 22:00:00,
2013-07-22 17:05:00,85.5,69.3,29.74,SSW,202,1.0,3.0,59,-99.99,,,0.00,1-wire,2013-07-22 22:05:00,
2013-07-22 17:10:00,85.7,68.8,29.73,SW,218,1.0,6.0,57,-99.99,,,0.00,1-wire,2013-07-22 22:10:00,
2013-07-22 17:15:00,85.3,68.5,29.73,SW,218,2.0,6.0,57,-99.99,,,0.00,1-wire,2013-07-22 22:15:00,
2013-07-22 17:20:00,85.2,69.2,29.74,SW,218,2.0,6.0,59,-99.99,,,0.00,1-wire,2013-07-22 22:20:00,
2013-07-22 17:25:00,84.9,68.9,29.74,SW,233,2.0,6.0,59,-99.99,,,0.00,1-wire,2013-07-22 22:25:00,
2013-07-22 17:30:00,85.0,69.2,29.73,SW,233,0.0,5.0,59,-99.99,,,0.00,1-wire,2013-07-22 22:30:00,
2013-07-22 17:35:00,85.0,69.2,29.73,SW,233,2.0,6.0,59,-99.99,,,0.00,1-wire,2013-07-22 22:35:00,
2013-07-22 17:40:00,85.4,68.6,29.73,SW,226,2.0,8.0,57,-99.99,,,0.00,1-wire,2013-07-22 22:40:00,
2013-07-22 17:45:00,84.7,68.5,29.74,SW,226,3.0,6.0,58,-99.99,,,0.00,1-wire,2013-07-22 22:45:00,
2013-07-22 17:50:00,84.2,68.4,29.74,SW,226,0.0,3.0,59,-99.99,,,0.00,1-wire,2013-07-22 22:50:00,
2013-07-22 17:55:00,83.9,68.9,29.74,SW,235,1.0,3.0,61,-99.99,,,0.00,1-wire,2013-07-22 22:55:00,
2013-07-22 18:00:00,83.5,68.0,29.74,SW,235,2.0,6.0,60,-99.99,,,0.00,1-wire,2013-07-22 23:00:00,
2013-07-22 18:05:00,83.6,68.8,29.74,SW,235,0.0,0.0,61,-99.99,,,0.00,1-wire,2013-07-22 23:05:00,
2013-07-22 18:10:00,83.3,69.1,29.74,SW,235,0.0,3.0,63,-99.99,,,0.00,1-wire,2013-07-22 23:10:00,
2013-07-22 18:15:00,83.2,70.0,29.73,SW,235,0.0,3.0,65,-99.99,,,0.00,1-wire,2013-07-22 23:15:00,
2013-07-22 18:20:00,82.4,69.1,29.74,SW,235,1.0,6.0,64,-99.99,,,0.00,1-wire,2013-07-22 23:20:00,
2013-07-22 18:25:00,82.6,69.6,29.74,WSW,252,0.0,0.0,65,-99.99,,,0.00,1-wire,2013-07-22 23:25:00,
2013-07-22 18:30:00,82.3,69.7,29.74,WSW,252,1.0,6.0,66,-99.99,,,0.00,1-wire,2013-07-22 23:30:00,
2013-07-22 18:35:00,81.9,68.8,29.74,WSW,252,1.0,6.0,65,-99.99,,,0.00,1-wire,2013-07-22 23:35:00,
2013-07-22 18:41:00,82.1,69.1,29.73,WSW,241,0.0,3.0,65,-99.99,,,0.00,1-wire,2013-07-22 23:41:00,
2013-07-22 18:46:00,82.1,69.0,29.73,WSW,241,0.0,3.0,65,-99.99,,,0.00,1-wire,2013-07-22 23:46:00,
2013-07-22 18:51:00,81.7,68.9,29.73,WSW,253,1.0,3.0,65,-99.99,,,0.01,1-wire,2013-07-22 23:51:00,
2013-07-22 18:56:00,80.9,70.8,29.74,WSW,253,1.0,3.0,71,-99.99,,,0.01,1-wire,2013-07-22 23:56:00,
2013-07-22 19:01:00,80.1,71.9,29.75,WSW,253,0.0,0.0,76,-99.99,,,0.04,1-wire,2013-07-23 00:01:00,
2013-07-22 19:07:00,79.1,72.7,29.75,WSW,237,0.0,0.0,81,-99.99,,,0.08,1-wire,2013-07-23 00:07:00,
2013-07-22 19:12:00,78.1,72.7,29.75,WSW,237,0.0,0.0,84,-99.99,,,0.08,1-wire,2013-07-23 00:12:00,
2013-07-22 19:17:00,77.9,72.9,29.75,WSW,237,0.0,0.0,85,-99.99,,,0.08,1-wire,2013-07-23 00:17:00,
2013-07-22 19:23:00,76.9,72.9,29.75,SW,235,2.0,6.0,88,-99.99,,,0.12,1-wire,2013-07-23 00:23:00,
2013-07-22 19:28:00,76.3,72.8,29.75,SW,235,3.0,6.0,89,-99.99,,,0.17,1-wire,2013-07-23 00:28:00,
2013-07-22 19:33:00,76.0,72.7,29.76,SW,235,0.0,3.0,90,-99.99,,,0.18,1-wire,2013-07-23 00:33:00,
2013-07-22 19:39:00,76.1,73.1,29.76,SW,236,0.0,3.0,90,-99.99,,,0.18,1-wire,2013-07-23 00:39:00,
2013-07-22 19:44:00,76.1,73.2,29.75,SW,236,0.0,0.0,91,-99.99,,,0.19,1-wire,2013-07-23 00:44:00,
2013-07-22 19:49:00,76.2,73.4,29.75,SW,236,0.0,0.0,91,-99.99,,,0.19,1-wire,2013-07-23 00:49:00,
2013-07-22 19:55:00,76.2,73.5,29.75,SW,236,0.0,0.0,91,-99.99,,,0.19,1-wire,2013-07-23 00:55:00,
2013-07-22 20:01:00,75.6,73.0,29.74,SW,236,0.0,0.0,92,-99.99,,,0.20,1-wire,2013-07-23 01:01:00,
2013-07-22 20:06:00,76.1,73.5,29.74,West,275,0.0,0.0,92,-99.99,,,0.20,1-wire,2013-07-23 01:06:00,
2013-07-22 20:11:00,75.7,73.1,29.74,West,275,0.0,0.0,92,-99.99,,,0.21,1-wire,2013-07-23 01:11:00,
2013-07-22 20:16:00,75.9,73.4,29.75,West,275,0.0,0.0,92,-99.99,,,0.21,1-wire,2013-07-23 01:16:00,
2013-07-22 20:21:00,75.7,73.3,29.74,West,267,0.0,0.0,92,-99.99,,,0.21,1-wire,2013-07-23 01:21:00,
2013-07-22 20:26:00,75.8,73.6,29.73,West,267,0.0,0.0,93,-99.99,,,0.21,1-wire,2013-07-23 01:26:00,
2013-07-22 20:31:00,75.9,73.9,29.73,West,267,0.0,0.0,94,-99.99,,,0.21,1-wire,2013-07-23 01:31:00,
2013-07-22 20:36:00,76.0,74.0,29.75,West,265,0.0,0.0,93,-99.99,,,0.21,1-wire,2013-07-23 01:36:00,
2013-07-22 20:42:00,75.4,73.4,29.75,West,265,7.0,16.0,94,-99.99,,,0.21,1-wire,2013-07-23 01:42:00,
2013-07-22 20:47:00,73.0,69.6,29.77,West,265,9.0,19.0,89,-99.99,,,0.24,1-wire,2013-07-23 01:47:00,
2013-07-22 20:52:00,69.7,65.8,29.77,NW,305,8.0,18.0,88,-99.99,,,0.35,1-wire,2013-07-23 01:52:00,
2013-07-22 20:57:00,68.3,64.3,29.77,NW,305,6.0,11.0,87,-99.99,,,0.38,1-wire,2013-07-23 01:57:00,
2013-07-22 21:02:00,67.4,63.8,29.77,NW,305,7.0,15.0,88,-99.99,,,0.39,1-wire,2013-07-23 02:02:00,
2013-07-22 21:07:00,66.8,63.5,29.73,SW,232,1.0,6.0,89,-99.99,,,0.40,1-wire,2013-07-23 02:07:00,
2013-07-22 21:12:00,66.3,63.0,29.73,SW,232,3.0,6.0,89,-99.99,,,0.41,1-wire,2013-07-23 02:12:00,
2013-07-22 21:17:00,66.1,63.1,29.72,SW,232,3.0,6.0,90,-99.99,,,0.42,1-wire,2013-07-23 02:17:00,
2013-07-22 21:22:00,66.0,63.3,29.71,SW,229,2.0,3.0,91,-99.99,,,0.42,1-wire,2013-07-23 02:22:00,
2013-07-22 21:27:00,66.1,63.5,29.71,SW,229,4.0,6.0,91,-99.99,,,0.42,1-wire,2013-07-23 02:27:00,
2013-07-22 21:32:00,66.2,63.4,29.72,SW,229,4.0,6.0,91,-99.99,,,0.42,1-wire,2013-07-23 02:32:00,
2013-07-22 21:37:00,66.4,63.8,29.72,SW,234,2.0,6.0,91,-99.99,,,0.42,1-wire,2013-07-23 02:37:00,
2013-07-22 21:42:00,66.5,63.9,29.72,SW,234,3.0,7.0,91,-99.99,,,0.42,1-wire,2013-07-23 02:42:00,
2013-07-22 21:47:00,66.5,63.5,29.73,SW,234,5.0,8.0,90,-99.99,,,0.42,1-wire,2013-07-23 02:47:00,
2013-07-22 21:52:00,66.4,62.6,29.76,SW,230,5.0,9.0,88,-99.99,,,0.42,1-wire,2013-07-23 02:52:00,
2013-07-22 21:57:00,66.1,62.5,29.75,SW,230,6.0,17.0,88,-99.99,,,0.42,1-wire,2013-07-23 02:57:00,
2013-07-22 22:02:00,65.7,62.2,29.71,SW,230,6.0,12.0,88,-99.99,,,0.43,1-wire,2013-07-23 03:02:00,
2013-07-22 22:07:00,65.5,62.0,29.73,SSW,201,3.0,8.0,89,-99.99,,,0.43,1-wire,2013-07-23 03:07:00,
2013-07-22 22:12:00,65.5,62.0,29.71,SSW,201,3.0,8.0,88,-99.99,,,0.43,1-wire,2013-07-23 03:12:00,
2013-07-22 22:17:00,65.4,61.5,29.71,SSW,201,2.0,6.0,87,-99.99,,,0.43,1-wire,2013-07-23 03:17:00,
2013-07-22 22:22:00,65.7,61.6,29.73,SSW,201,1.0,3.0,87,-99.99,,,0.43,1-wire,2013-07-23 03:22:00,
2013-07-22 22:28:00,65.5,62.0,29.74,SSW,201,1.0,3.0,89,-99.99,,,0.43,1-wire,2013-07-23 03:28:00,
2013-07-22 22:34:00,65.6,61.8,29.74,SSW,201,1.0,3.0,88,-99.99,,,0.43,1-wire,2013-07-23 03:34:00,
2013-07-22 22:39:00,65.2,61.2,29.74,SSW,201,0.0,0.0,87,-99.99,,,0.43,1-wire,2013-07-23 03:39:00,
2013-07-22 22:44:00,65.3,61.4,29.74,SSW,201,0.0,0.0,87,-99.99,,,0.43,1-wire,2013-07-23 03:44:00,
2013-07-22 22:49:00,65.5,61.9,29.74,SSW,201,1.0,3.0,88,-99.99,,,0.43,1-wire,2013-07-23 03:49:00,
2013-07-22 22:54:00,65.3,61.1,29.74,SSW,209,1.0,3.0,86,-99.99,,,0.43,1-wire,2013-07-23 03:54:00,
2013-07-22 23:00:00,65.5,61.5,29.73,SSW,209,1.0,3.0,87,-99.99,,,0.43,1-wire,2013-07-23 04:00:00,
2013-07-22 23:01:00,65.5,61.3,29.73,SSW,209,2.0,6.0,86,-99.99,,,0.43,1-wire,2013-07-23 04:01:00,
2013-07-22 23:02:00,65.6,61.1,29.73,SSW,209,3.0,6.0,85,-99.99,,,0.43,1-wire,2013-07-23 04:02:00,
2013-07-22 23:03:00,65.7,60.8,29.73,SSW,209,1.0,3.0,84,-99.99,,,0.43,1-wire,2013-07-23 04:03:00,
2013-07-22 23:04:00,65.8,60.9,29.73,SSW,209,2.0,6.0,84,-99.99,,,0.43,1-wire,2013-07-23 04:04:00,
2013-07-22 23:08:00,66.0,60.9,29.74,SW,228,3.0,6.0,84,-99.99,,,0.43,1-wire,2013-07-23 04:08:00,
2013-07-22 23:13:00,66.1,60.4,29.74,SW,228,1.0,3.0,82,-99.99,,,0.43,1-wire,2013-07-23 04:13:00,
2013-07-22 23:19:00,66.5,61.1,29.75,SW,228,1.0,6.0,83,-99.99,,,0.43,1-wire,2013-07-23 04:19:00,
2013-07-22 23:25:00,66.4,60.7,29.75,WSW,237,2.0,6.0,82,-99.99,,,0.43,1-wire,2013-07-23 04:25:00,
2013-07-22 23:31:00,66.6,60.8,29.77,WSW,237,1.0,3.0,82,-99.99,,,0.43,1-wire,2013-07-23 04:31:00,
2013-07-22 23:37:00,66.5,60.5,29.77,SW,232,2.0,6.0,81,-99.99,,,0.43,1-wire,2013-07-23 04:37:00,
2013-07-22 23:43:00,66.8,60.2,29.77,SW,232,1.0,3.0,80,-99.99,,,0.43,1-wire,2013-07-23 04:43:00,
2013-07-22 23:48:00,67.2,60.7,29.76,SW,232,1.0,6.0,80,-99.99,,,0.43,1-wire,2013-07-23 04:48:00,
2013-07-22 23:53:00,67.4,60.6,29.76,SW,228,0.0,3.0,79,-99.99,,,0.43,1-wire,2013-07-23 04:53:00,
2013-07-22 23:58:00,67.6,60.7,29.76,SW,228,1.0,3.0,78,-99.99,,,0.43,1-wire,2013-07-23 04:58:00,